owner,sensor,date,latitude,longitude,vertical_datum,wind_speed,wind_to_direction,wind_speed_of_gust,qcFlag 
LOOP,urn:ioos:station:wmo:lopl1:1,2015-03-01T00:08:00Z,28.8850,-90.0250,10.0,9.1,55.0,11.9,'11111222,11111222,11111222' 
LOOP,urn:ioos:station:wmo:lopl1:1,2015-03-01T00:23:00Z,28.8850,-90.0250,10.0,10.3,59.0,12.8,'11111222,11111222,11111222' 
LOOP,urn:ioos:station:wmo:lopl1:1,2015-03-01T00:38:00Z,28.8850,-90.0250,10.0,11.0,62.0,13.3,'11111222,11111222,11111222' 
LOOP,urn:ioos:station:wmo:lopl1:1,2015-03-01T00:53:00Z,28.8850,-90.0250,10.0,9.8,47.0,13.5,'11111222,11111222,11111222' 
LOOP,urn:ioos:station:wmo:lopl1:1,2015-03-01T01:08:00Z,28.8850,-90.0250,10.0,9.4,63.0,12.8,'11111222,11111222,11111222' 
LOOP,urn:ioos:station:wmo:lopl1:1,2015-03-01T01:23:00Z,28.8850,-90.0250,10.0,9.6,56.0,12.5,'11111222,11111222,11111222' 
LOOP,urn:ioos:station:wmo:lopl1:1,2015-03-01T01:38:00Z,28.8850,-90.0250,10.0,10.1,63.0,12.3,'11111222,11111222,11111222' 
LOOP,urn:ioos:station:wmo:lopl1:1,2015-03-01T01:53:00Z,28.8850,-90.0250,10.0,11.0,63.0,12.8,'11111222,11111222,11111222' 
LOOP,urn:ioos:station:wmo:lopl1:1,2015-03-01T02:08:00Z,28.8850,-90.0250,10.0,11.0,65.0,13.0,'11111222,11111222,11111222' 
LOOP,urn:ioos:station:wmo:lopl1:1,2015-03-01T02:23:00Z,28.8850,-90.0250,10.0,11.4,68.0,13.1,'11111222,11111222,11111222' 
LOOP,urn:ioos:station:wmo:lopl1:1,2015-03-01T02:38:00Z,28.8850,-90.0250,10.0,10.5,73.0,12.4,'11111222,11111222,11111222' 
LOOP,urn:ioos:station:wmo:lopl1:1,2015-03-01T02:53:00Z,28.8850,-90.0250,10.0,10.3,73.0,11.7,'11111222,11111222,11111222' 
LOOP,urn:ioos:station:wmo:lopl1:1,2015-03-01T03:08:00Z,28.8850,-90.0250,10.0,9.9,72.0,11.4,'11111222,11111222,11111222' 
LOOP,urn:ioos:station:wmo:lopl1:1,2015-03-01T03:28:00Z,28.8850,-90.0250,10.0,10.2,69.0,11.8,'11111222,11111222,11111222' 
LOOP,urn:ioos:station:wmo:lopl1:1,2015-03-01T03:43:00Z,28.8850,-90.0250,10.0,9.5,77.0,11.1,'11111222,11111222,11111222' 
LOOP,urn:ioos:station:wmo:lopl1:1,2015-03-01T03:58:00Z,28.8850,-90.0250,10.0,9.6,73.0,11.5,'11111222,11111222,11111222' 
LOOP,urn:ioos:station:wmo:lopl1:1,2015-03-01T04:13:00Z,28.8850,-90.0250,10.0,10.4,66.0,11.8,'11111222,11111222,11111222' 
LOOP,urn:ioos:station:wmo:lopl1:1,2015-03-01T04:28:00Z,28.8850,-90.0250,10.0,9.4,69.0,10.9,'11111222,11111222,11111222' 
LOOP,urn:ioos:station:wmo:lopl1:1,2015-03-01T04:43:00Z,28.8850,-90.0250,10.0,9.3,66.0,11.1,'11111222,11111222,11111222' 
LOOP,urn:ioos:station:wmo:lopl1:1,2015-03-01T04:58:00Z,28.8850,-90.0250,10.0,9.4,68.0,11.0,'11111222,11111222,11111222' 
LOOP,urn:ioos:station:wmo:lopl1:1,2015-03-01T05:13:00Z,28.8850,-90.0250,10.0,9.2,71.0,10.4,'11111222,11111222,11111222' 
LOOP,urn:ioos:station:wmo:lopl1:1,2015-03-01T05:28:00Z,28.8850,-90.0250,10.0,8.4,77.0,10.3,'11111222,11111222,11111222' 
LOOP,urn:ioos:station:wmo:lopl1:1,2015-03-01T05:43:00Z,28.8850,-90.0250,10.0,8.4,81.0,10.3,'11111222,11111222,11111222' 
LOOP,urn:ioos:station:wmo:lopl1:1,2015-03-01T05:58:00Z,28.8850,-90.0250,10.0,8.1,75.0,9.9,'11111222,11111222,11111222' 
LOOP,urn:ioos:station:wmo:lopl1:1,2015-03-01T06:13:00Z,28.8850,-90.0250,10.0,8.6,72.0,10.1,'11111222,11111222,11111222' 
LOOP,urn:ioos:station:wmo:lopl1:1,2015-03-01T06:28:00Z,28.8850,-90.0250,10.0,9.0,80.0,11.1,'11111222,11111222,11111222' 
LOOP,urn:ioos:station:wmo:lopl1:1,2015-03-01T06:43:00Z,28.8850,-90.0250,10.0,8.4,80.0,10.1,'11111222,11111222,11111222' 
LOOP,urn:ioos:station:wmo:lopl1:1,2015-03-01T06:58:00Z,28.8850,-90.0250,10.0,8.6,66.0,10.1,'11111222,11111222,11111222' 
LOOP,urn:ioos:station:wmo:lopl1:1,2015-03-01T07:13:00Z,28.8850,-90.0250,10.0,8.6,72.0,10.0,'11111222,11111222,11111222' 
LOOP,urn:ioos:station:wmo:lopl1:1,2015-03-01T07:28:00Z,28.8850,-90.0250,10.0,8.4,74.0,9.7,'11111222,11111222,11111222' 
LOOP,urn:ioos:station:wmo:lopl1:1,2015-03-01T07:43:00Z,28.8850,-90.0250,10.0,8.8,75.0,10.3,'11111222,11111222,11111222' 
LOOP,urn:ioos:station:wmo:lopl1:1,2015-03-01T07:58:00Z,28.8850,-90.0250,10.0,9.4,84.0,10.7,'11111222,11111222,11111222' 
LOOP,urn:ioos:station:wmo:lopl1:1,2015-03-01T08:13:00Z,28.8850,-90.0250,10.0,10.5,90.0,11.9,'11111222,11111222,11111222' 
LOOP,urn:ioos:station:wmo:lopl1:1,2015-03-01T08:28:00Z,28.8850,-90.0250,10.0,11.4,87.0,12.5,'11111222,11111222,11111222' 
LOOP,urn:ioos:station:wmo:lopl1:1,2015-03-01T08:43:00Z,28.8850,-90.0250,10.0,10.6,89.0,11.8,'11111222,11111222,11111222' 
LOOP,urn:ioos:station:wmo:lopl1:1,2015-03-01T08:58:00Z,28.8850,-90.0250,10.0,10.6,86.0,12.2,'11111222,11111222,11111222' 
LOOP,urn:ioos:station:wmo:lopl1:1,2015-03-01T09:13:00Z,28.8850,-90.0250,10.0,10.3,84.0,11.8,'11111222,11111222,11111222' 
LOOP,urn:ioos:station:wmo:lopl1:1,2015-03-01T09:28:00Z,28.8850,-90.0250,10.0,9.5,84.0,10.9,'11111222,11111222,11111222' 
LOOP,urn:ioos:station:wmo:lopl1:1,2015-03-01T09:43:00Z,28.8850,-90.0250,10.0,10.0,90.0,11.3,'11111222,11111222,11111222' 
LOOP,urn:ioos:station:wmo:lopl1:1,2015-03-01T09:58:00Z,28.8850,-90.0250,10.0,10.4,91.0,11.5,'11111222,11111222,11111222' 
LOOP,urn:ioos:station:wmo:lopl1:1,2015-03-01T10:13:00Z,28.8850,-90.0250,10.0,9.7,86.0,11.2,'11111222,11111222,11111222' 
LOOP,urn:ioos:station:wmo:lopl1:1,2015-03-01T10:28:00Z,28.8850,-90.0250,10.0,9.4,87.0,10.3,'11111222,11111222,11111222' 
LOOP,urn:ioos:station:wmo:lopl1:1,2015-03-01T10:43:00Z,28.8850,-90.0250,10.0,8.4,85.0,9.5,'11111222,11111222,11111222' 
LOOP,urn:ioos:station:wmo:lopl1:1,2015-03-01T10:58:00Z,28.8850,-90.0250,10.0,8.7,82.0,9.9,'11111222,11111222,11111222' 
LOOP,urn:ioos:station:wmo:lopl1:1,2015-03-01T11:13:00Z,28.8850,-90.0250,10.0,7.8,80.0,8.9,'11111222,11111222,11111222' 
LOOP,urn:ioos:station:wmo:lopl1:1,2015-03-01T11:28:00Z,28.8850,-90.0250,10.0,8.0,83.0,9.8,'11111222,11111222,11111222' 
LOOP,urn:ioos:station:wmo:lopl1:1,2015-03-01T11:43:00Z,28.8850,-90.0250,10.0,9.6,81.0,10.4,'11111222,11111222,11111222' 
LOOP,urn:ioos:station:wmo:lopl1:1,2015-03-01T11:58:00Z,28.8850,-90.0250,10.0,9.8,86.0,10.6,'11111222,11111222,11111222' 
LOOP,urn:ioos:station:wmo:lopl1:1,2015-03-01T12:13:00Z,28.8850,-90.0250,10.0,9.7,90.0,10.5,'11111222,11111222,11111222' 
LOOP,urn:ioos:station:wmo:lopl1:1,2015-03-01T12:28:00Z,28.8850,-90.0250,10.0,9.5,95.0,10.4,'11111222,11111222,11111222' 
LOOP,urn:ioos:station:wmo:lopl1:1,2015-03-01T12:43:00Z,28.8850,-90.0250,10.0,8.8,100.0,9.4,'11111222,11111222,11111222' 
LOOP,urn:ioos:station:wmo:lopl1:1,2015-03-01T12:58:00Z,28.8850,-90.0250,10.0,8.7,103.0,9.5,'11111222,11111222,11111222' 
LOOP,urn:ioos:station:wmo:lopl1:1,2015-03-01T13:13:00Z,28.8850,-90.0250,10.0,8.7,102.0,9.4,'11111222,11111222,11111222' 
LOOP,urn:ioos:station:wmo:lopl1:1,2015-03-01T13:28:00Z,28.8850,-90.0250,10.0,8.5,100.0,9.2,'11111222,11111222,11111222' 
LOOP,urn:ioos:station:wmo:lopl1:1,2015-03-01T13:43:00Z,28.8850,-90.0250,10.0,9.5,100.0,10.1,'11111222,11111222,11111222' 
LOOP,urn:ioos:station:wmo:lopl1:1,2015-03-01T13:58:00Z,28.8850,-90.0250,10.0,7.7,94.0,8.9,'11111222,11111222,11111222' 
LOOP,urn:ioos:station:wmo:lopl1:1,2015-03-01T14:13:00Z,28.8850,-90.0250,10.0,6.9,92.0,7.3,'11111222,11111222,11111222' 
LOOP,urn:ioos:station:wmo:lopl1:1,2015-03-01T14:28:00Z,28.8850,-90.0250,10.0,6.5,93.0,6.9,'11111222,11111222,11111222' 
LOOP,urn:ioos:station:wmo:lopl1:1,2015-03-01T14:48:00Z,28.8850,-90.0250,10.0,7.3,114.0,7.5,'11111222,11111222,11111222' 
LOOP,urn:ioos:station:wmo:lopl1:1,2015-03-01T15:03:00Z,28.8850,-90.0250,10.0,6.5,112.0,6.8,'11111222,11111222,11111222' 
LOOP,urn:ioos:station:wmo:lopl1:1,2015-03-01T15:18:00Z,28.8850,-90.0250,10.0,6.1,118.0,6.5,'11111222,11111222,11111222' 
LOOP,urn:ioos:station:wmo:lopl1:1,2015-03-01T15:33:00Z,28.8850,-90.0250,10.0,7.3,128.0,7.9,'11111222,11111222,11111222' 
LOOP,urn:ioos:station:wmo:lopl1:1,2015-03-01T15:48:00Z,28.8850,-90.0250,10.0,7.9,121.0,8.3,'11111222,11111222,11111222' 
LOOP,urn:ioos:station:wmo:lopl1:1,2015-03-01T16:03:00Z,28.8850,-90.0250,10.0,8.7,125.0,9.1,'11111222,11111222,11111222' 
LOOP,urn:ioos:station:wmo:lopl1:1,2015-03-01T16:18:00Z,28.8850,-90.0250,10.0,8.4,125.0,9.0,'11111222,11111222,11111222' 
LOOP,urn:ioos:station:wmo:lopl1:1,2015-03-01T16:33:00Z,28.8850,-90.0250,10.0,8.2,127.0,8.9,'11111222,11111222,11111222' 
LOOP,urn:ioos:station:wmo:lopl1:1,2015-03-01T16:48:00Z,28.8850,-90.0250,10.0,11.5,117.0,12.0,'11111222,11111222,11111222' 
LOOP,urn:ioos:station:wmo:lopl1:1,2015-03-01T17:03:00Z,28.8850,-90.0250,10.0,12.6,115.0,12.9,'11111222,11111222,11111222' 
LOOP,urn:ioos:station:wmo:lopl1:1,2015-03-01T17:18:00Z,28.8850,-90.0250,10.0,12.4,111.0,12.8,'11111222,11111222,11111222' 
LOOP,urn:ioos:station:wmo:lopl1:1,2015-03-01T17:33:00Z,28.8850,-90.0250,10.0,10.4,110.0,11.9,'11111222,11111222,11111222' 
LOOP,urn:ioos:station:wmo:lopl1:1,2015-03-01T17:48:00Z,28.8850,-90.0250,10.0,12.5,115.0,12.8,'11111222,11111222,11111222' 
LOOP,urn:ioos:station:wmo:lopl1:1,2015-03-01T18:03:00Z,28.8850,-90.0250,10.0,9.8,112.0,10.8,'11111222,11111222,11111222' 
LOOP,urn:ioos:station:wmo:lopl1:1,2015-03-01T18:18:00Z,28.8850,-90.0250,10.0,10.1,114.0,11.2,'11111222,11111222,11111222' 
LOOP,urn:ioos:station:wmo:lopl1:1,2015-03-01T18:33:00Z,28.8850,-90.0250,10.0,8.8,116.0,9.9,'11111222,11111222,11111222' 
LOOP,urn:ioos:station:wmo:lopl1:1,2015-03-01T18:48:00Z,28.8850,-90.0250,10.0,9.3,121.0,10.1,'11111222,11111222,11111222' 
LOOP,urn:ioos:station:wmo:lopl1:1,2015-03-01T19:03:00Z,28.8850,-90.0250,10.0,10.0,118.0,10.8,'11111222,11111222,11111222' 
LOOP,urn:ioos:station:wmo:lopl1:1,2015-03-01T19:18:00Z,28.8850,-90.0250,10.0,9.3,114.0,10.2,'11111222,11111222,11111222' 
LOOP,urn:ioos:station:wmo:lopl1:1,2015-03-01T19:33:00Z,28.8850,-90.0250,10.0,9.0,116.0,9.7,'11111222,11111222,11111222' 
LOOP,urn:ioos:station:wmo:lopl1:1,2015-03-01T19:48:00Z,28.8850,-90.0250,10.0,8.8,120.0,9.6,'11111222,11111222,11111222' 
LOOP,urn:ioos:station:wmo:lopl1:1,2015-03-01T20:03:00Z,28.8850,-90.0250,10.0,8.5,124.0,9.2,'11111222,11111222,11111222' 
LOOP,urn:ioos:station:wmo:lopl1:1,2015-03-01T20:18:00Z,28.8850,-90.0250,10.0,9.1,123.0,9.6,'11111222,11111222,11111222' 
LOOP,urn:ioos:station:wmo:lopl1:1,2015-03-01T20:33:00Z,28.8850,-90.0250,10.0,8.9,123.0,9.4,'11111222,11111222,11111222' 
LOOP,urn:ioos:station:wmo:lopl1:1,2015-03-01T20:48:00Z,28.8850,-90.0250,10.0,8.7,120.0,9.1,'11111222,11111222,11111222' 
LOOP,urn:ioos:station:wmo:lopl1:1,2015-03-01T21:03:00Z,28.8850,-90.0250,10.0,8.4,120.0,8.7,'11111222,11111222,11111222' 
LOOP,urn:ioos:station:wmo:lopl1:1,2015-03-01T21:18:00Z,28.8850,-90.0250,10.0,8.1,120.0,8.3,'11111222,11111222,11111222' 
LOOP,urn:ioos:station:wmo:lopl1:1,2015-03-01T21:33:00Z,28.8850,-90.0250,10.0,8.2,115.0,8.4,'11111222,11111222,11111222' 
LOOP,urn:ioos:station:wmo:lopl1:1,2015-03-01T21:48:00Z,28.8850,-90.0250,10.0,7.7,117.0,8.0,'11111222,11111222,11111222' 
LOOP,urn:ioos:station:wmo:lopl1:1,2015-03-01T22:08:00Z,28.8850,-90.0250,10.0,7.3,119.0,7.6,'11111222,11111222,11111222' 
LOOP,urn:ioos:station:wmo:lopl1:1,2015-03-01T22:23:00Z,28.8850,-90.0250,10.0,7.1,120.0,7.5,'11111222,11111222,11111222' 
LOOP,urn:ioos:station:wmo:lopl1:1,2015-03-01T22:38:00Z,28.8850,-90.0250,10.0,6.9,115.0,7.2,'11111222,11111222,11111222' 
LOOP,urn:ioos:station:wmo:lopl1:1,2015-03-01T22:53:00Z,28.8850,-90.0250,10.0,7.2,116.0,7.5,'11111222,11111222,11111222' 
LOOP,urn:ioos:station:wmo:lopl1:1,2015-03-01T23:08:00Z,28.8850,-90.0250,10.0,7.2,115.0,7.6,'11111222,11111222,11111222' 
LOOP,urn:ioos:station:wmo:lopl1:1,2015-03-01T23:23:00Z,28.8850,-90.0250,10.0,7.4,118.0,7.6,'11111222,11111222,11111222' 
LOOP,urn:ioos:station:wmo:lopl1:1,2015-03-01T23:38:00Z,28.8850,-90.0250,10.0,7.1,123.0,7.4,'11111222,11111222,11111222' 
LOOP,urn:ioos:station:wmo:lopl1:1,2015-03-01T23:53:00Z,28.8850,-90.0250,10.0,7.2,121.0,7.6,'11111222,11111222,11111222' 
LOOP,urn:ioos:station:wmo:lopl1:1,2015-03-02T00:08:00Z,28.8850,-90.0250,10.0,6.7,123.0,7.1,'11111222,11111222,11111222' 
LOOP,urn:ioos:station:wmo:lopl1:1,2015-03-02T00:23:00Z,28.8850,-90.0250,10.0,6.7,123.0,7.0,'11111222,11111222,11111222' 
LOOP,urn:ioos:station:wmo:lopl1:1,2015-03-02T00:38:00Z,28.8850,-90.0250,10.0,6.6,121.0,6.8,'11111222,11111222,11111222' 
LOOP,urn:ioos:station:wmo:lopl1:1,2015-03-02T00:53:00Z,28.8850,-90.0250,10.0,6.4,127.0,6.6,'11111222,11111222,11111222' 
LOOP,urn:ioos:station:wmo:lopl1:1,2015-03-02T01:08:00Z,28.8850,-90.0250,10.0,6.3,128.0,6.5,'11111222,11111222,11111222' 
LOOP,urn:ioos:station:wmo:lopl1:1,2015-03-02T01:23:00Z,28.8850,-90.0250,10.0,6.0,126.0,6.2,'11111222,11111222,11111222' 
LOOP,urn:ioos:station:wmo:lopl1:1,2015-03-02T01:38:00Z,28.8850,-90.0250,10.0,6.3,131.0,6.6,'11111222,11111222,11111222' 
LOOP,urn:ioos:station:wmo:lopl1:1,2015-03-02T01:53:00Z,28.8850,-90.0250,10.0,6.2,127.0,6.4,'11111222,11111222,11111222' 
LOOP,urn:ioos:station:wmo:lopl1:1,2015-03-02T02:08:00Z,28.8850,-90.0250,10.0,6.3,130.0,6.6,'11111222,11111222,11111222' 
LOOP,urn:ioos:station:wmo:lopl1:1,2015-03-02T02:23:00Z,28.8850,-90.0250,10.0,5.8,129.0,6.0,'11111222,11111222,11111222' 
LOOP,urn:ioos:station:wmo:lopl1:1,2015-03-02T02:38:00Z,28.8850,-90.0250,10.0,6.1,126.0,6.5,'11111222,11111222,11111222' 
LOOP,urn:ioos:station:wmo:lopl1:1,2015-03-02T02:53:00Z,28.8850,-90.0250,10.0,5.8,127.0,6.1,'11111222,11111222,11111222' 
LOOP,urn:ioos:station:wmo:lopl1:1,2015-03-02T03:08:00Z,28.8850,-90.0250,10.0,5.6,128.0,5.8,'11111222,11111222,11111222' 
LOOP,urn:ioos:station:wmo:lopl1:1,2015-03-02T03:23:00Z,28.8850,-90.0250,10.0,5.5,138.0,5.7,'11111222,11111222,11111222' 
LOOP,urn:ioos:station:wmo:lopl1:1,2015-03-02T03:38:00Z,28.8850,-90.0250,10.0,5.4,131.0,5.7,'11111222,11111222,11111222' 
LOOP,urn:ioos:station:wmo:lopl1:1,2015-03-02T03:53:00Z,28.8850,-90.0250,10.0,5.4,131.0,5.5,'11111222,11111222,11111222' 
LOOP,urn:ioos:station:wmo:lopl1:1,2015-03-02T04:08:00Z,28.8850,-90.0250,10.0,5.4,130.0,5.7,'11111222,11111222,11111222' 
LOOP,urn:ioos:station:wmo:lopl1:1,2015-03-02T04:23:00Z,28.8850,-90.0250,10.0,5.3,138.0,5.5,'11111222,11111222,11111222' 
LOOP,urn:ioos:station:wmo:lopl1:1,2015-03-02T04:38:00Z,28.8850,-90.0250,10.0,5.7,147.0,5.8,'11111222,11111222,11111222' 
LOOP,urn:ioos:station:wmo:lopl1:1,2015-03-02T04:53:00Z,28.8850,-90.0250,10.0,6.0,152.0,6.2,'11111222,11111222,11111222' 
LOOP,urn:ioos:station:wmo:lopl1:1,2015-03-02T05:13:00Z,28.8850,-90.0250,10.0,6.5,152.0,6.7,'11111222,11111222,11111222' 
LOOP,urn:ioos:station:wmo:lopl1:1,2015-03-02T05:28:00Z,28.8850,-90.0250,10.0,7.1,149.0,7.2,'11111222,11111222,11111222' 
LOOP,urn:ioos:station:wmo:lopl1:1,2015-03-02T05:43:00Z,28.8850,-90.0250,10.0,7.2,150.0,7.4,'11111222,11111222,11111222' 
LOOP,urn:ioos:station:wmo:lopl1:1,2015-03-02T05:58:00Z,28.8850,-90.0250,10.0,7.1,150.0,7.3,'11111222,11111222,11111222' 
LOOP,urn:ioos:station:wmo:lopl1:1,2015-03-02T06:13:00Z,28.8850,-90.0250,10.0,7.1,148.0,7.3,'11111222,11111222,11111222' 
LOOP,urn:ioos:station:wmo:lopl1:1,2015-03-02T06:28:00Z,28.8850,-90.0250,10.0,6.8,151.0,7.1,'11111222,11111222,11111222' 
LOOP,urn:ioos:station:wmo:lopl1:1,2015-03-02T06:43:00Z,28.8850,-90.0250,10.0,6.9,155.0,7.1,'11111222,11111222,11111222' 
LOOP,urn:ioos:station:wmo:lopl1:1,2015-03-02T06:58:00Z,28.8850,-90.0250,10.0,7.1,154.0,7.4,'11111222,11111222,11111222' 
LOOP,urn:ioos:station:wmo:lopl1:1,2015-03-02T07:13:00Z,28.8850,-90.0250,10.0,7.8,154.0,7.9,'11111222,11111222,11111222' 
LOOP,urn:ioos:station:wmo:lopl1:1,2015-03-02T07:28:00Z,28.8850,-90.0250,10.0,7.6,149.0,7.7,'11111222,11111222,11111222' 
LOOP,urn:ioos:station:wmo:lopl1:1,2015-03-02T07:43:00Z,28.8850,-90.0250,10.0,7.3,151.0,7.7,'11111222,11111222,11111222' 
LOOP,urn:ioos:station:wmo:lopl1:1,2015-03-02T07:58:00Z,28.8850,-90.0250,10.0,7.7,151.0,8.3,'11111222,11111222,11111222' 
LOOP,urn:ioos:station:wmo:lopl1:1,2015-03-02T08:13:00Z,28.8850,-90.0250,10.0,7.9,153.0,8.1,'11111222,11111222,11111222' 
LOOP,urn:ioos:station:wmo:lopl1:1,2015-03-02T08:28:00Z,28.8850,-90.0250,10.0,7.7,160.0,7.9,'11111222,11111222,11111222' 
LOOP,urn:ioos:station:wmo:lopl1:1,2015-03-02T08:43:00Z,28.8850,-90.0250,10.0,7.0,157.0,7.4,'11111222,11111222,11111222' 
LOOP,urn:ioos:station:wmo:lopl1:1,2015-03-02T08:58:00Z,28.8850,-90.0250,10.0,7.1,161.0,7.3,'11111222,11111222,11111222' 
LOOP,urn:ioos:station:wmo:lopl1:1,2015-03-02T09:13:00Z,28.8850,-90.0250,10.0,6.9,164.0,7.2,'11111222,11111222,11111222' 
LOOP,urn:ioos:station:wmo:lopl1:1,2015-03-02T09:28:00Z,28.8850,-90.0250,10.0,6.1,153.0,6.7,'11111222,11111222,11111222' 
LOOP,urn:ioos:station:wmo:lopl1:1,2015-03-02T09:43:00Z,28.8850,-90.0250,10.0,6.2,158.0,6.5,'11111222,11111222,11111222' 
LOOP,urn:ioos:station:wmo:lopl1:1,2015-03-02T09:58:00Z,28.8850,-90.0250,10.0,5.2,143.0,5.8,'11111222,11111222,11111222' 
LOOP,urn:ioos:station:wmo:lopl1:1,2015-03-02T10:13:00Z,28.8850,-90.0250,10.0,4.6,148.0,5.1,'11111222,11111222,11111222' 
LOOP,urn:ioos:station:wmo:lopl1:1,2015-03-02T10:28:00Z,28.8850,-90.0250,10.0,4.5,150.0,5.0,'11111222,11111222,11111222' 
LOOP,urn:ioos:station:wmo:lopl1:1,2015-03-02T10:43:00Z,28.8850,-90.0250,10.0,5.2,149.0,5.5,'11111222,11111222,11111222' 
LOOP,urn:ioos:station:wmo:lopl1:1,2015-03-02T10:58:00Z,28.8850,-90.0250,10.0,5.5,148.0,5.8,'11111222,11111222,11111222' 
LOOP,urn:ioos:station:wmo:lopl1:1,2015-03-02T11:13:00Z,28.8850,-90.0250,10.0,5.5,151.0,5.8,'11111222,11111222,11111222' 
LOOP,urn:ioos:station:wmo:lopl1:1,2015-03-02T11:28:00Z,28.8850,-90.0250,10.0,6.3,155.0,6.5,'11111222,11111222,11111222' 
LOOP,urn:ioos:station:wmo:lopl1:1,2015-03-02T11:43:00Z,28.8850,-90.0250,10.0,6.6,152.0,6.9,'11111222,11111222,11111222' 
LOOP,urn:ioos:station:wmo:lopl1:1,2015-03-02T11:58:00Z,28.8850,-90.0250,10.0,5.9,149.0,6.3,'11111222,11111222,11111222' 
LOOP,urn:ioos:station:wmo:lopl1:1,2015-03-02T12:13:00Z,28.8850,-90.0250,10.0,5.3,135.0,5.6,'11111222,11111222,11111222' 
LOOP,urn:ioos:station:wmo:lopl1:1,2015-03-02T12:28:00Z,28.8850,-90.0250,10.0,3.9,125.0,5.5,'11111222,11111222,11111222' 
LOOP,urn:ioos:station:wmo:lopl1:1,2015-03-02T12:43:00Z,28.8850,-90.0250,10.0,5.9,138.0,6.2,'11111222,11111222,11111222' 
LOOP,urn:ioos:station:wmo:lopl1:1,2015-03-02T12:58:00Z,28.8850,-90.0250,10.0,5.0,125.0,5.4,'11111222,11111222,11111222' 
LOOP,urn:ioos:station:wmo:lopl1:1,2015-03-02T13:13:00Z,28.8850,-90.0250,10.0,5.6,130.0,5.9,'11111222,11111222,11111222' 
LOOP,urn:ioos:station:wmo:lopl1:1,2015-03-02T13:28:00Z,28.8850,-90.0250,10.0,5.7,125.0,6.3,'11111222,11111222,11111222' 
LOOP,urn:ioos:station:wmo:lopl1:1,2015-03-02T13:48:00Z,28.8850,-90.0250,10.0,4.3,110.0,6.2,'11111222,11111222,11111222' 
LOOP,urn:ioos:station:wmo:lopl1:1,2015-03-02T14:03:00Z,28.8850,-90.0250,10.0,5.9,114.0,6.8,'11111222,11111222,11111222' 
LOOP,urn:ioos:station:wmo:lopl1:1,2015-03-02T14:18:00Z,28.8850,-90.0250,10.0,5.7,123.0,6.2,'11111222,11111222,11111222' 
LOOP,urn:ioos:station:wmo:lopl1:1,2015-03-02T14:33:00Z,28.8850,-90.0250,10.0,6.7,129.0,7.1,'11111222,11111222,11111222' 
LOOP,urn:ioos:station:wmo:lopl1:1,2015-03-02T14:48:00Z,28.8850,-90.0250,10.0,6.8,139.0,7.2,'11111222,11111222,11111222' 
LOOP,urn:ioos:station:wmo:lopl1:1,2015-03-02T15:08:00Z,28.8850,-90.0250,10.0,6.7,139.0,6.9,'11111222,11111222,11111222' 
LOOP,urn:ioos:station:wmo:lopl1:1,2015-03-02T15:23:00Z,28.8850,-90.0250,10.0,6.6,141.0,6.9,'11111222,11111222,11111222' 
LOOP,urn:ioos:station:wmo:lopl1:1,2015-03-02T15:38:00Z,28.8850,-90.0250,10.0,6.1,143.0,6.3,'11111222,11111222,11111222' 
LOOP,urn:ioos:station:wmo:lopl1:1,2015-03-02T15:53:00Z,28.8850,-90.0250,10.0,5.1,131.0,5.7,'11111222,11111222,11111222' 
LOOP,urn:ioos:station:wmo:lopl1:1,2015-03-02T16:08:00Z,28.8850,-90.0250,10.0,5.0,130.0,5.2,'11111222,11111222,11111222' 
LOOP,urn:ioos:station:wmo:lopl1:1,2015-03-02T16:23:00Z,28.8850,-90.0250,10.0,5.2,132.0,5.5,'11111222,11111222,11111222' 
LOOP,urn:ioos:station:wmo:lopl1:1,2015-03-02T16:38:00Z,28.8850,-90.0250,10.0,5.3,128.0,6.6,'11111222,11111222,11111222' 
LOOP,urn:ioos:station:wmo:lopl1:1,2015-03-02T17:08:00Z,28.8850,-90.0250,10.0,6.4,142.0,6.7,'11111222,11111222,11111222' 
LOOP,urn:ioos:station:wmo:lopl1:1,2015-03-02T17:23:00Z,28.8850,-90.0250,10.0,7.3,145.0,7.4,'11111222,11111222,11111222' 
LOOP,urn:ioos:station:wmo:lopl1:1,2015-03-02T17:38:00Z,28.8850,-90.0250,10.0,7.1,145.0,7.3,'11111222,11111222,11111222' 
LOOP,urn:ioos:station:wmo:lopl1:1,2015-03-02T17:53:00Z,28.8850,-90.0250,10.0,7.0,147.0,7.1,'11111222,11111222,11111222' 
LOOP,urn:ioos:station:wmo:lopl1:1,2015-03-02T18:08:00Z,28.8850,-90.0250,10.0,6.8,152.0,7.0,'11111222,11111222,11111222' 
LOOP,urn:ioos:station:wmo:lopl1:1,2015-03-02T18:23:00Z,28.8850,-90.0250,10.0,6.9,156.0,7.1,'11111222,11111222,11111222' 
LOOP,urn:ioos:station:wmo:lopl1:1,2015-03-02T18:38:00Z,28.8850,-90.0250,10.0,6.3,155.0,6.6,'11111222,11111222,11111222' 
LOOP,urn:ioos:station:wmo:lopl1:1,2015-03-02T18:53:00Z,28.8850,-90.0250,10.0,6.1,160.0,7.0,'11111222,11111222,11111222' 
LOOP,urn:ioos:station:wmo:lopl1:1,2015-03-02T19:08:00Z,28.8850,-90.0250,10.0,5.9,165.0,6.2,'11111222,11111222,11111222' 
LOOP,urn:ioos:station:wmo:lopl1:1,2015-03-02T19:23:00Z,28.8850,-90.0250,10.0,6.1,168.0,6.6,'11111222,11111222,11111222' 
LOOP,urn:ioos:station:wmo:lopl1:1,2015-03-02T19:38:00Z,28.8850,-90.0250,10.0,6.1,167.0,6.4,'11111222,11111222,11111222' 
LOOP,urn:ioos:station:wmo:lopl1:1,2015-03-02T19:53:00Z,28.8850,-90.0250,10.0,6.2,168.0,6.4,'11111222,11111222,11111222' 
LOOP,urn:ioos:station:wmo:lopl1:1,2015-03-02T20:08:00Z,28.8850,-90.0250,10.0,6.4,167.0,6.6,'11111222,11111222,11111222' 
LOOP,urn:ioos:station:wmo:lopl1:1,2015-03-02T20:23:00Z,28.8850,-90.0250,10.0,6.6,169.0,6.8,'11111222,11111222,11111222' 
LOOP,urn:ioos:station:wmo:lopl1:1,2015-03-02T20:38:00Z,28.8850,-90.0250,10.0,6.3,167.0,6.5,'11111222,11111222,11111222' 
LOOP,urn:ioos:station:wmo:lopl1:1,2015-03-02T20:53:00Z,28.8850,-90.0250,10.0,5.8,168.0,6.2,'11111222,11111222,11111222' 
LOOP,urn:ioos:station:wmo:lopl1:1,2015-03-02T21:08:00Z,28.8850,-90.0250,10.0,5.4,170.0,5.8,'11111222,11111222,11111222' 
LOOP,urn:ioos:station:wmo:lopl1:1,2015-03-02T21:23:00Z,28.8850,-90.0250,10.0,5.5,170.0,5.8,'11111222,11111222,11111222' 
LOOP,urn:ioos:station:wmo:lopl1:1,2015-03-02T21:38:00Z,28.8850,-90.0250,10.0,5.2,170.0,6.0,'11111222,11111222,11111222' 
LOOP,urn:ioos:station:wmo:lopl1:1,2015-03-02T21:58:00Z,28.8850,-90.0250,10.0,5.5,169.0,5.8,'11111222,11111222,11111222' 
LOOP,urn:ioos:station:wmo:lopl1:1,2015-03-02T22:13:00Z,28.8850,-90.0250,10.0,5.0,169.0,5.3,'11111222,11111222,11111222' 
LOOP,urn:ioos:station:wmo:lopl1:1,2015-03-02T22:28:00Z,28.8850,-90.0250,10.0,4.8,167.0,5.0,'11111222,11111222,11111222' 
LOOP,urn:ioos:station:wmo:lopl1:1,2015-03-02T22:43:00Z,28.8850,-90.0250,10.0,4.6,164.0,4.9,'11111222,11111222,11111222' 
LOOP,urn:ioos:station:wmo:lopl1:1,2015-03-02T22:58:00Z,28.8850,-90.0250,10.0,4.5,153.0,4.8,'11111222,11111222,11111222' 
LOOP,urn:ioos:station:wmo:lopl1:1,2015-03-02T23:13:00Z,28.8850,-90.0250,10.0,4.3,148.0,4.4,'11111222,11111222,11111222' 
LOOP,urn:ioos:station:wmo:lopl1:1,2015-03-02T23:28:00Z,28.8850,-90.0250,10.0,4.5,153.0,4.7,'11111222,11111222,11111222' 
LOOP,urn:ioos:station:wmo:lopl1:1,2015-03-02T23:43:00Z,28.8850,-90.0250,10.0,4.4,157.0,4.5,'11111222,11111222,11111222' 
LOOP,urn:ioos:station:wmo:lopl1:1,2015-03-02T23:58:00Z,28.8850,-90.0250,10.0,4.6,156.0,4.8,'11111222,11111222,11111222' 
LOOP,urn:ioos:station:wmo:lopl1:1,2015-03-03T00:13:00Z,28.8850,-90.0250,10.0,4.7,150.0,4.9,'11111222,11111222,11111222' 
LOOP,urn:ioos:station:wmo:lopl1:1,2015-03-03T00:28:00Z,28.8850,-90.0250,10.0,4.7,151.0,4.8,'11111222,11111222,11111222' 
LOOP,urn:ioos:station:wmo:lopl1:1,2015-03-03T00:43:00Z,28.8850,-90.0250,10.0,4.4,147.0,4.5,'11111222,11111222,11111222' 
LOOP,urn:ioos:station:wmo:lopl1:1,2015-03-03T00:58:00Z,28.8850,-90.0250,10.0,5.3,141.0,5.6,'11111222,11111222,11111222' 
LOOP,urn:ioos:station:wmo:lopl1:1,2015-03-03T01:13:00Z,28.8850,-90.0250,10.0,5.6,140.0,5.8,'11111222,11111222,11111222' 
LOOP,urn:ioos:station:wmo:lopl1:1,2015-03-03T01:28:00Z,28.8850,-90.0250,10.0,6.1,141.0,6.2,'11111222,11111222,11111222' 
LOOP,urn:ioos:station:wmo:lopl1:1,2015-03-03T01:43:00Z,28.8850,-90.0250,10.0,6.1,147.0,6.3,'11111222,11111222,11111222' 
LOOP,urn:ioos:station:wmo:lopl1:1,2015-03-03T01:58:00Z,28.8850,-90.0250,10.0,6.4,151.0,6.6,'11111222,11111222,11111222' 